Location: Bellflower
(33.8817°N, 118.1170°W)
Time: 14:02:34
(UTC+00:00)

SJ 16-02 - Pass Details

Date: 23 November 2020
Orbit: 606 x 616 km, 75.0° (Epoch: 22 January)

Event Time Altitude Azimuth Distance (km) Brightness Sun altitude
Rises 12:49:38 0° 179° (S) 2,856 4.9 -21.2°
Reaches altitude 10° 12:51:56 10° 172° (S) 1,958 4.1 -20.7°
Maximum altitude 12:56:04 42° 101° (E) 873 2.6 -19.9°
Drops below altitude 10° 13:00:14 10° 31° (NNE) 1,976 4.2 -19.0°
Sets 13:02:34 0° 24° (NNE) 2,886 4.9 -18.6°
